[ hide orbit diagram ]
For accurate long-term ephemerides, please instead use our Horizons system.This orbit viewer was implemented using two-body methods, and hence should not be used for determining accurate long-term trajectories (over several years or decades) or planetary encounter circumstances.
[ revert to old Java-based viewer ]
Orbital Elements at Epoch 2458600.5 (2019-Apr-27.0) TDB
Reference: JPL 12 (heliocentric ecliptic J2000)
Element | Value | Uncertainty (1-sigma) | Units |
e | .1293064133627811 | 7.7095e-08 | |
a | 3.124956649783682 | 7.153e-08 | au |
q | 2.720879713485982 | 2.5545e-07 | au |
i | 11.3852103158165 | 9.3421e-06 | deg |
node | 27.69564815458945 | 3.9438e-05 | deg |
peri | 282.1170063940058 | 5.2476e-05 | deg |
M | 251.964614725235 | 3.691e-05 | deg |
tp | 2459206.019239478525 (2020-Dec-22.51923948) | 0.00021589 | TDB |
period | 2017.736370892423 5.52 | 6.9279e-05 1.897e-07 | d yr |
n | .1784177582330916 | 6.126e-09 | deg/d |
Q | 3.529033586081383 | 8.0779e-08 | au |
|
| | Orbit Determination Parameters
Additional Information
|
[ show covariance matrix ]
Physical Parameter Table
Parameter |
Symbol |
Value |
Units |
Sigma |
Reference |
Notes |
absolute magnitude |
H |
15.9 |
|
n/a |
MPO437716 |
|
|
441426 (2008 GV96) Discovered 2008-Apr-08 by Mt. Lemmon Survey at Mount Lemmon |
Reference: | Last Updated: 2015-09-02 |
|
[ show close-approach data ]
|